STARLINK-35430, 66020

Orbit data source: Space-Track

STARLINK-35430, 66020 is a payload satellite owned by SpaceX/Seattle (US) in LEO that was launched on Thu, 16 Oct 2025 UTC via an FALCON 9 launch vehicle from the Air Force Eastern Test Range (AFETR). Payload-class satellites include a variety of spacecraft equipped with specific instruments for various scientific and technological missions. These include communications satellites like Starlink; space stations such as the ISS; scientific satellites like the Hubble; Earth observation satellites from companies like Planet Labs, Umbra, and HawkEye 360; GPS; miniature CubeSats for education and research; and military/defense satellites.

Not visible in the next 10 days
Identifier
66020, 2025-232R
Orbit
LEO
Country
Flag of USUS
Related business
Manufacturer
SpaceX/Seattle
Mission
Operational spacecraft
Bus & Motor
STARLINK V2MO, Unknown motor
Mass
575 kg wet, ~530 kg dry
Launch date (UTC)
2025-10-16 (1 week ago)
Launch vehicle
FALCON 9
Launch site
Air Force Eastern Test Range (AFETR)
Object type
Payload
Rocket body
Debris
Shape & HBR
Unknown shape, 17.7 m
Radar Cross Section
RCS unknown

Expand to show TLE details & history
Last TLE update: 4 hours ago

TLE from 4 hours ago
0 STARLINK-35430
1 66020U 25232R   25299.16668980 -.01608504  00000-0 -74030-2 0  9991
2 66020  53.1552  13.9250 0001180  73.4159  55.1369 15.85700532  1901
Epoch: 2025-10-26T04:00Z
TLE epoch observation values (Epoch: 2025-10-26T04:00:01.998Z)
Latitude
38.86499°
Longitude
62.22723°
Altitude
317.243 km
Speed
7.723 km/s
True Right ascension
10h 28m 05s
True Declination
38° 41' 10"
Sunlit
Object was in daylight at epoch
Visualization orbit readout
Latitude
Unknown
Longitude
Unknown
Altitude
Unknown
Speed
Unknown
Apparent Right ascension
Unknown
Apparent Declination
Unknown
Sunlit
N/A
Visualization observer readout
Local Sidereal Time
03:42:05
Azimuth
Unknown
Elevation
Unknown
Doppler factor
Unknown
Orbital elements
Apogee altitude
315.406 km
Perigee altitude
313.826 km
Semi-major axis
6,692.753 km
Eccentricity
0.00012
Inclination
53.1552°
RAAN
13.925°
Arg. of periapsis
73.4159°
True anomaly
55.148°
Mean anomaly
55.1369°
Eccentric anomaly
55.14245°
Mean motion
3.96402 °/min
Orbital period
90.82 mins
BSTAR
-0.007403
Loading maneuver chart data...
Computing Atmospheric mass density...
Loading historical data...
Loading historical data...
Loading historical data...
Loading historical data...
Loading historical data...
Loading historical data...
Loading historical data...

Documentation

Showing up to 5 results
|